Погода Ивано-Франковск

Погода Ивано-Франковск : погода сейчас, прогноз погоды и архив. Всё, что Вы хотите узнать о погоде Ивано-Франковск!

Поиск расширенной информации на нашем сайте:

Другие новости

Новости СМИ2

Главная страница сайта

Новости сайта

02.10.2013

Напоминаем, что на нашем новом сайте вы можете получить высокодетализированные прогнозы погоды по пунктам России, СНГ и мира (включающие важные для авиации метеовеличины, такие как направление и скорость ветра, видимость, явления погоды, количество и форма облачности, нижняя и верхняя граница облачности), а также ознакомиться с разнообразными материалами по авиационной метеорологии и подборкой полезных ссылок на эту тему.

Сайт Метеоцентр.Азия посвящён разработке технологий оптимизации авиаметеорологического обслуживания, включая проектирование и перспективное создание нескольких автоматизированных авиаметеорологических систем:
- система выпуска высокодетальных прогностических карт явлений погоды для нижнего воздушного пространства по России и ближнему зарубежью;
- система верификации прогнозов TAF (выпускаемых синоптиками официальных АМСГ РФ и ближнего зарубежья) и AUTOTAF (выпускаемых сайтом Метеоцентр.Азия) - выявление ошибок, онлайн-сопоставление с фактической погодой METAR, автоматическое внесение коррективов в прогнозы при резком отклонении фактической погоды от прогноза, подсчёт оправдываемости прогнозов по элементам и в целом;
- система обработки, анализа и отображения авиаметеорологической информации для применения провайдерами метеорологической информации.

Рекомендуем: Качественный синускан в наличии stimul20.ru.

Погода Ивано-Франковск - сегодня

Время (UTC), дата Ветер
(°,м/с) 
Видим.   Явления Облачность Т
(°С)
Тd
(°С)
f(%) Тe
(°С)
Pmin
(гПа)
dP
(гПа)
Po
(мм)
O2
(г/м3)
Тmin Tmax R s Состояние
почвы
18 18.01.17 тихо ()   2200 м  дымка  9/0 средняя 
[Ac trans]
-9.2 -9.5 98 -9  1041.8  0.6  754  315    -3.5       
21 18.01.17 тихо ()   0600 м  переохл. туман  ?/?  
-13.9 -14.5 95 -14  1042.8  0.3  754  321           
00 19.01.17 тихо ()   0900 м  переохл. туман  ?/?  
-11.3 -11.9 95 -11  1042.2  -0.1  754  318           
03 19.01.17 тихо ()   0600 м  переохл. туман  ?/?  
-10.8 -11.4 95 -11  1042.3  0.1  754  317           
06 19.01.17 тихо ()   4300 м  дымка{туман}  10/10 100 м 
[St]
-10.5 -11.1 95 -11  1041.5  -0.6  753  317  -15      равномерный
мокрый или
старый снег
100% 
09 19.01.17 тихо ()   10 км    10/10 180 м 
[St]
-8.8 -9.5 95 -9  1042.1  0.6  754  315           
12 19.01.17 080 (В) 10 км    10/10 270 м 
[St]
-7.9 -8.5 95 -9  1040.5  -1.3  753  313           
15 19.01.17 140 (ЮВ) 10 км    10/10 300 м 
[St]
-7.4 -8.7 90 -7  1039.8  -0.6  752  313           
18 19.01.17 тихо ()   10 км    10/10 270 м 
[St]
-7.8 -9.2 90 -8  1039.3  -0.6  752  313    -7.3       
21 19.01.17 тихо ()   10 км    10/10 240 м 
[St]
-8.4 -9.4 92 -8  1039.3  752  314           
00 20.01.17 260 (З) 10 км    10/10 210 м 
[St]
-9.2 -9.9 95 -11  1038.7  -0.7  751  314           
03 20.01.17 240 (ЮЗ) 10 км    4/4 600 м 
[Sc]
-12.8 -13.4 95 -15  1038.2  -1  751  319           
06 20.01.17 220 (ЮЗ) 10 км    8/8 1300 м 
[Sc]
-13.5 -14.1 95 -13  1037.6  -0.6  750  319  -15.9      равномерный
мокрый или
старый снег
100% 
09 20.01.17 тихо ()   10 км    9/9 1380 м 
[Sc]
-9 -11 85 -9  1036.9  -0.1  750  314           
12 20.01.17 тихо ()   10 км    8/8 1380 м 
[Sc]
-1.1 -7.7 61 -1  1033.7  -2  749  304           
15 20.01.17 080 (В) 10 км    9/6 900 м средняя 
[Sc|Ac trans]
-1.6 -6.1 71 -1  1032.8  -0.9  748  304           
18 20.01.17 тихо ()   10 км    10/10 600 м 
[Sc]
-2.5 -5.1 82 -3  1032.7  -0.3  748  305    -0.5       
21 20.01.17 270 (З) 10 км    10/10 480 м 
[Sc]
-0.1 -2.2 86 -1  1031.9  -0.5  747  301           
00 21.01.17 280 (З) 20000 м    10/10 500 м 
[Sc]
+1.5 -0.7 85 -1  1030.9  -0.7  747  299           
03 21.01.17 280 (З) 20000 м    10/10 600 м 
[Sc]
+1.5 -1 83 -2  1029.5  -1.2  746  299           
06 21.01.17 290 (З) 20000 м    9/9 500 м 
[Sc]
+1.1 -1.5 83 -3  1030  0.5  746  300  -2.5         
09 21.01.17 290 (З) 20000 м    10/10 500 м 
[Sc]
+1.4 -1.5 81 -3  1031.3  1.3  747  300           
12 21.01.17 290 (З) 20000 м    10/10 570 м 
[Sc]
+2.4 -1.2 77 1031  -0.2  747  298           
15 21.01.17 280 (З) 20000 м    10/10 600 м 
[Sc]
+2.2 -0.8 81 1031.3  0.3  747  299           
18 21.01.17 290 (З) 20000 м    10/10 720 м 
[Sc]
+1.6 -0.9 83 1032.7  1.3  748  300    +2.5       
Время (UTC), дата Ветер
(°,м/с) 
Видим.   Явления Облачность Т
(°С)
Тd
(°С)
f(%) Тe
(°С)
Pmin
(гПа)
dP
(гПа)
Po
(мм)
O2
(г/м3)
Тmin Tmax R s Состояние
почвы

Для получения пояснительной информации подведите курсор к названию столбца.

ПОГОДА Ивано-Франковск - архив

Всё, что Вы хотите узнать о погоде Ивано-Франковск - удобно и подробно!

Выберите нужную дату (начиная с 1 января 2015* года) и нажмите кнопку "Найти".
Будут отображены архивные сводки погоды по пункту Ивано-Франковск, начиная с указанной даты.


Отображать данные в формате CSV (для использования в таблицах Excel)


Внимание! Наш архив погоды предназначен исключительно для личного некоммерческого использования в познавательных целях. Если Вам необходимы официальные справки о состоянии погоды (для производственных, юридических, коммерческих и т.п. целей), обращайтесь в органы Росгидромета.

*Примечание: данная дата относится к архиву по метеостанциям СССР (Россия, СНГ, Балтия).
Архив по метеостанциям Зарубежной Европы и Азии (кроме Китая) хранится 10 дней, по другим регионам земного шара (Китай, Африка, Америка, Австралия, Океания) - 1 день.

Ивано-Франковск - район местоположения метеостанции


Название, широта, долгота, высота метеостанции:
Ивано-Франковск 49°ш. 24.4°д. 280 м над ур. моря [Украина]

Дополнительная информация

В oтличие oт бoльшинства пoгoдных сайтoв мы публикуем пoдрoбную метеoинфoрмацию в детальнoм прoфессиoнальнoм фoрмате.

Характеристики температуры и влажнoсти вoздуха измеряются на высoте 2 м в тени вдали oт зданий и деревьев.
Скoрoсть ветра измеряется на высoте 10 м (на урoвне рoста челoвека скoрoсть ветра ниже в 1.5-2 раза). Если метеoстанция нахoдится в гoрoде или в лесу, тo скoрoсть ветра занижена на 2-4 м/с пo сравнению с oткрытым местoм. Скoрoсть ветра над акватoриями крупных рек и oзёр, а также на вершинах хoлмoв на 2-5 м/с выше, чем в oбычных услoвиях.
Атмoсфернoе давление в разных тoчках местнoсти мoжет значительнo oтличаться oт давления на метеoстанции, в зависимoсти oт услoвий рельефа (при пoдъёме на 10 м давление пoнижается примернo на 1 мм рт.ст.).